[[{"header":{"parameterUnit":"m.s-1","parameterCategory":1,"la1":30.2992,"la2":30.254,"lo1":-89.0895,"lo2":-89.0443,"dy":0.0025,"dx":0.0025,"nx":19,"ny":19,"refTime":"2026-04-26T09:00:00:Z","depth":0,"parameterNumber":2,"parameterNumberName":"U-component_of_WINDS"},"data":[0,0,0,-2.9609,-2.9611,-2.9721,-2.9722,-2.9864,-2.9865,0,0,0,0,0,0,0,0,0,0,0,-2.9576,-2.9577,-2.9609,-2.9611,-2.9721,-2.9722,-2.9864,-2.9865,0,0,0,0,0,0,0,0,0,0,0,-2.9576,-2.9577,-2.9578,-2.9612,-2.9721,-2.9722,-2.9864,-2.978,0,0,0,0,0,0,0,0,0,0,-2.9673,-2.9643,-2.9577,-2.9578,-2.9612,-2.9721,-2.9722,-2.9776,-2.9785,-2.9815,0,-2.984,0,-2.9855,-2.9875,-2.9875,0,0,0,-2.9612,-2.9635,-2.9665,-2.9578,-2.9613,-2.9721,-2.9672,-2.9781,-2.9792,-2.9827,-2.9842,-2.9847,-2.9857,-2.9876,-2.9877,-3.0042,-3.0043,0,0,-2.9606,-2.9596,-2.9658,-2.9672,-2.9654,-2.9668,-2.9675,-2.9788,-2.9804,-2.9843,-2.9851,-2.986,-2.9877,-2.9878,-3.0042,-3.0043,0,0,0,-2.9588,-2.9592,-2.9619,-2.9666,-2.9685,-2.9671,-2.9679,-2.9799,-2.9808,-2.9852,-2.9861,-2.9878,-2.9879,-3.0041,-3.0042,-3.007,0,0,0,-2.9584,-2.9582,-2.9616,-2.9612,-2.9683,-2.9743,-2.9688,-2.98,-2.9813,-2.9861,-2.9878,-2.9881,-3.004,-3.0041,-3.0067,-3.0085,0,0,0,-2.9569,-2.958,-2.9596,-2.9611,-2.9658,-2.9742,-2.9758,-2.9803,-2.9819,-2.9876,-2.9881,-3.0039,-3.0041,-3.0065,-3.0081,-3.0125,0,0,0,-2.9551,-2.962,-2.9596,-2.9678,-2.9657,-2.9758,-2.9757,-2.9833,-2.9885,-2.9878,-3.004,-3.0042,-3.0064,-3.0079,-3.0122,-3.016,-3.0174,0,0,-2.9633,-2.963,-2.9678,-2.966,-2.9763,-2.9742,-2.985,-2.9906,-2.9921,-3.0001,-3.0005,-3.0068,-3.0081,-3.0124,-3.0262,-3.0274,0,0,0,-2.9702,-2.9736,-2.9765,-2.9814,-2.9858,-2.9898,-2.9939,-2.996,-3.0029,-2.996,-3.0097,-3.0105,-3.0131,-3.0149,-3.0159,-3.0181,-3.005,-3.005,-3.005,-2.9805,-2.9819,-2.99,-2.9927,-2.9974,-3.0016,-3.0055,-3.0091,-3.0092,-3.0124,-3.0148,-3.023,-3.0251,-3.0258,-3.0282,-3.017,-3.017,-3.017,-3.017,-2.9927,-2.9978,-2.9977,-3.0055,-3.007,-3.0136,-3.0179,-3.0177,-3.0242,-3.0213,-3.0237,-3.0203,-3.0271,-3.0292,-3.0172,-3.0172,-3.0171,-3.0171,-3.0171,-2.9996,-3.0022,-3.0046,-3.0117,-3.0171,-3.0197,-3.0258,-3.027,-3.0281,-3.0305,-3.0331,-3.033,-3.0331,-3.0316,-3.0317,-3.0317,-3.0317,-3.0317,-3.0318,-3.0057,-3.0083,-3.0133,-3.0186,-3.0218,-3.0262,-3.0305,-3.0338,-3.0377,-3.038,-3.0381,-3.0378,-3.0275,-3.0248,-3.0322,-3.0321,-3.0321,-3.032,-3.032,-3.0175,-3.015,-3.0226,-3.0259,-3.0321,-3.0373,-3.0388,-3.0453,-3.0482,-3.0512,-3.0505,-3.0426,-3.0424,-3.0416,-3.0394,-3.0501,-3.0501,-3.0501,-3.0501,-3.0232,-3.0232,-3.0312,-3.0363,-3.0415,-3.0435,-3.0521,-3.0555,-3.0587,-3.0606,-3.0592,-3.0564,-3.0556,-3.0558,-3.0547,-3.0527,-3.0666,-3.0666,-3.0666,-3.0305,-3.031,-3.0381,-3.041,-3.046,-3.0503,-3.0584,-3.0644,-3.0675,-3.0673,-3.0621,-3.0614,-3.0569,-3.0553,-3.055,-3.0533,-3.0495,0,0]},{"header":{"parameterUnit":"m.s-1","parameterCategory":1,"la1":30.2992,"la2":30.254,"lo1":-89.0895,"lo2":-89.0443,"dy":0.0025,"dx":0.0025,"nx":19,"ny":19,"refTime":"2026-04-26T09:00:00:Z","depth":0,"parameterNumber":3,"parameterNumberName":"V-component_of_WINDS"},"data":[0,0,0,4.3248,4.3251,4.3351,4.3352,4.3478,4.3479,0,0,0,0,0,0,0,0,0,0,0,4.3219,4.3219,4.3248,4.3251,4.3351,4.3352,4.3478,4.3479,0,0,0,0,0,0,0,0,0,0,0,4.3218,4.3219,4.322,4.3251,4.3351,4.3352,4.3478,4.3402,0,0,0,0,0,0,0,0,0,0,4.3305,4.3277,4.3219,4.322,4.3252,4.3351,4.3352,4.3399,4.3407,4.3432,0,4.3455,0,4.3469,4.3488,4.3488,0,0,0,4.325,4.327,4.3298,4.322,4.3253,4.3351,4.3306,4.3403,4.3413,4.3443,4.3457,4.3462,4.3471,4.3488,4.3489,4.3638,4.3639,0,0,4.3245,4.3236,4.3291,4.3304,4.329,4.3303,4.3309,4.3409,4.3423,4.3458,4.3465,4.3474,4.3489,4.349,4.3637,4.3638,0,0,0,4.3229,4.3232,4.3257,4.3299,4.3317,4.3306,4.3313,4.3419,4.3428,4.3466,4.3475,4.349,4.3492,4.3637,4.3638,4.3666,0,0,0,4.3226,4.3223,4.3255,4.3251,4.3315,4.337,4.3321,4.3421,4.3432,4.3474,4.349,4.3493,4.3636,4.3637,4.3664,4.3681,0,0,0,4.3212,4.3222,4.3236,4.325,4.3293,4.3368,4.3383,4.3424,4.3438,4.3488,4.3493,4.3635,4.3637,4.3662,4.3678,4.372,0,0,0,4.3194,4.3259,4.3237,4.3312,4.3292,4.3385,4.3382,4.3451,4.3498,4.3491,4.3636,4.3638,4.3661,4.3676,4.3717,4.3754,4.3769,0,0,4.3271,4.3268,4.3313,4.3296,4.3391,4.337,4.3469,4.3519,4.353,4.3601,4.3605,4.3665,4.3678,4.3719,4.3849,4.386,0,0,0,4.3334,4.3366,4.3393,4.3438,4.3478,4.3515,4.355,4.3569,4.363,4.3565,4.369,4.3698,4.3723,4.3741,4.3751,4.3773,4.3645,4.3645,4.3645,4.3431,4.3443,4.3519,4.3544,4.3587,4.3623,4.3659,4.369,4.3689,4.3718,4.374,4.3817,4.3838,4.3846,4.3869,4.3759,4.3759,4.3759,4.3759,4.3545,4.3594,4.3592,4.3665,4.3677,4.3738,4.3775,4.3772,4.383,4.3802,4.3824,4.3794,4.3858,4.3878,4.3762,4.3761,4.3761,4.3761,4.376,4.3612,4.3637,4.3659,4.3726,4.3775,4.3796,4.3853,4.3861,4.3869,4.3891,4.3916,4.3916,4.3917,4.3902,4.3902,4.3903,4.3903,4.3903,4.3903,4.3673,4.3697,4.3744,4.3792,4.3823,4.3863,4.39,4.3929,4.3964,4.3965,4.3966,4.3962,4.3861,4.3837,4.3908,4.3907,4.3906,4.3906,4.3906,4.3788,4.3763,4.3836,4.3867,4.3924,4.3973,4.3983,4.4042,4.4067,4.4094,4.4086,4.4009,4.4006,4.3999,4.3979,4.4082,4.4082,4.4082,4.4082,4.3846,4.3845,4.3922,4.397,4.4017,4.4034,4.4115,4.4144,4.4169,4.4186,4.4171,4.4145,4.4136,4.4138,4.4128,4.4109,4.4244,4.4244,4.4244,4.3918,4.3922,4.3991,4.4017,4.4062,4.4101,4.4178,4.4232,4.4256,4.4251,4.4199,4.4192,4.4149,4.4134,4.413,4.4113,4.4079,0,0]}]]